AMAZONAS 1

Last updated on Sept. 4, 2017, 12:18 a.m. UTC

1 28393U 04031A   17246.57826918 -.00000134  00000-0  00000-0 0  9998
2 28393   1.9130  83.4100 0012018  25.2973 277.0787  0.98456981 47882
UTC
Height (km)
Latitude
Longitude
Inclination
Orbital Period
UTC large
Height (km)
Speed (km/s)
/
Latitude / Longitude
Inclination (degrees)
Orbital Period (minutes)
Azimuth
Elevation
Range (km)
Doppler Factor
iOS Compass Heading
iOS Angle

Next 30 passes for location: Hong Kong

Rise time Rise Azimuth (degrees) Set time Set Azimuth (degrees) Duration Max altitude (degrees)

No matching passes for this satellites